Time,TemperatureF,DewpointF,PressureIn,WindDirection,WindDirectionDegrees,WindSpeedMPH,WindSpeedGustMPH,Humidity,HourlyPrecipIn,Conditions,Clouds,dailyrainin,SoftwareType,DateUTC
2013-01-02 00:00:00,2.0,0.0,29.47,NW,315,0.0,0.0,87,0.00,,,0.00,Rainwise IP-100,2013-01-02 05:00:00,
2013-01-02 00:05:00,2.0,0.0,29.46,NW,315,0.0,0.0,87,0.00,,,0.00,Rainwise IP-100,2013-01-02 05:05:00,
2013-01-02 00:10:00,1.8,0.0,29.46,NW,315,0.0,0.0,87,0.00,,,0.00,Rainwise IP-100,2013-01-02 05:10:00,
2013-01-02 00:15:00,1.7,0.0,29.46,NW,315,0.0,2.1,87,0.00,,,0.00,Rainwise IP-100,2013-01-02 05:15:00,
2013-01-02 00:20:00,1.6,0.0,29.46,NW,315,0.0,0.0,87,0.00,,,0.00,Rainwise IP-100,2013-01-02 05:20:00,
2013-01-02 00:25:00,1.6,0.0,29.45,NW,315,0.0,1.6,87,0.00,,,0.00,Rainwise IP-100,2013-01-02 05:25:00,
2013-01-02 00:31:00,1.6,0.0,29.45,NW,315,0.0,1.4,86,0.00,,,0.00,Rainwise IP-100,2013-01-02 05:31:00,
2013-01-02 00:36:00,1.4,0.0,29.46,NW,315,3.3,4.4,86,0.00,,,0.00,Rainwise IP-100,2013-01-02 05:36:00,
2013-01-02 00:41:00,1.3,0.0,29.46,NW,315,0.0,4.4,86,0.00,,,0.00,Rainwise IP-100,2013-01-02 05:41:00,
2013-01-02 00:46:00,1.1,0.0,29.46,NW,315,0.0,0.0,86,0.00,,,0.00,Rainwise IP-100,2013-01-02 05:46:00,
2013-01-02 00:51:00,0.7,0.0,29.46,NW,315,0.0,0.0,86,0.00,,,0.00,Rainwise IP-100,2013-01-02 05:51:00,
2013-01-02 00:56:00,0.4,-6.0,29.46,NW,315,0.0,0.0,86,0.00,,,0.00,Rainwise IP-100,2013-01-02 05:56:00,
2013-01-02 01:01:00,0.3,-6.0,29.46,NW,315,0.0,1.2,86,0.00,,,0.00,Rainwise IP-100,2013-01-02 06:01:00,
2013-01-02 01:06:00,0.3,-6.0,29.46,NW,315,0.0,0.0,87,0.00,,,0.00,Rainwise IP-100,2013-01-02 06:06:00,
2013-01-02 01:11:00,0.2,-6.0,29.46,NW,315,0.0,0.0,87,0.00,,,0.00,Rainwise IP-100,2013-01-02 06:11:00,
2013-01-02 01:16:00,0.4,0.0,29.46,NW,315,0.0,0.0,88,0.00,,,0.00,Rainwise IP-100,2013-01-02 06:16:00,
2013-01-02 01:21:00,0.3,-6.0,29.46,NW,315,0.0,0.0,87,0.00,,,0.00,Rainwise IP-100,2013-01-02 06:21:00,
2013-01-02 01:26:00,0.0,-6.0,29.46,NW,315,0.0,0.0,87,0.00,,,0.00,Rainwise IP-100,2013-01-02 06:26:00,
2013-01-02 01:31:00,0.3,-6.0,29.46,NW,315,0.0,0.0,87,0.00,,,0.00,Rainwise IP-100,2013-01-02 06:31:00,
2013-01-02 01:36:00,0.4,-6.0,29.47,NW,315,0.0,0.0,87,0.00,,,0.00,Rainwise IP-100,2013-01-02 06:36:00,
2013-01-02 01:41:00,0.5,0.0,29.46,NW,315,0.0,0.0,88,0.00,,,0.00,Rainwise IP-100,2013-01-02 06:41:00,
2013-01-02 01:47:00,0.5,0.0,29.46,NW,315,0.0,0.0,88,0.00,,,0.00,Rainwise IP-100,2013-01-02 06:47:00,
2013-01-02 01:52:00,0.4,0.0,29.46,NW,315,0.0,0.0,88,0.00,,,0.00,Rainwise IP-100,2013-01-02 06:52:00,
2013-01-02 01:57:00,0.5,0.0,29.46,NW,315,0.0,0.0,88,0.00,,,0.00,Rainwise IP-100,2013-01-02 06:57:00,
2013-01-02 02:02:00,0.5,0.0,29.46,NW,315,0.0,0.0,88,0.00,,,0.00,Rainwise IP-100,2013-01-02 07:02:00,
2013-01-02 02:07:00,0.6,0.0,29.46,NW,315,0.0,0.0,88,0.00,,,0.00,Rainwise IP-100,2013-01-02 07:07:00,
2013-01-02 02:12:00,0.8,0.0,29.46,NW,315,0.0,0.0,88,0.00,,,0.00,Rainwise IP-100,2013-01-02 07:12:00,
2013-01-02 02:17:00,-1.1,0.0,29.47,NW,315,0.0,0.0,88,0.00,,,0.00,Rainwise IP-100,2013-01-02 07:17:00,
2013-01-02 02:22:00,-1.2,0.0,29.46,NW,315,0.0,0.0,88,0.00,,,0.00,Rainwise IP-100,2013-01-02 07:22:00,
2013-01-02 02:27:00,-1.3,0.0,29.46,NW,315,0.0,0.0,88,0.00,,,0.00,Rainwise IP-100,2013-01-02 07:27:00,
2013-01-02 02:32:00,-1.3,0.0,29.47,NW,315,0.0,0.0,89,0.00,,,0.00,Rainwise IP-100,2013-01-02 07:32:00,
2013-01-02 02:37:00,-1.3,0.0,29.47,NW,315,0.0,0.0,88,0.00,,,0.00,Rainwise IP-100,2013-01-02 07:37:00,
2013-01-02 02:42:00,-1.4,0.0,29.47,NW,315,0.0,0.0,88,0.00,,,0.00,Rainwise IP-100,2013-01-02 07:42:00,
2013-01-02 02:47:00,-1.7,0.0,29.47,NW,315,0.0,0.0,88,0.00,,,0.00,Rainwise IP-100,2013-01-02 07:47:00,
2013-01-02 02:52:00,-2.1,-6.0,29.46,NW,315,0.0,0.0,87,0.00,,,0.00,Rainwise IP-100,2013-01-02 07:52:00,
2013-01-02 02:57:00,-2.4,0.0,29.46,NW,315,0.0,0.0,88,0.00,,,0.00,Rainwise IP-100,2013-01-02 07:57:00,
2013-01-02 03:03:00,-2.5,0.0,29.47,NW,315,0.0,0.0,88,0.00,,,0.00,Rainwise IP-100,2013-01-02 08:03:00,
2013-01-02 03:08:00,-2.6,0.0,29.47,NW,315,0.0,0.0,88,0.00,,,0.00,Rainwise IP-100,2013-01-02 08:08:00,
2013-01-02 03:13:00,-2.4,0.0,29.46,NW,315,0.0,0.0,89,0.00,,,0.00,Rainwise IP-100,2013-01-02 08:13:00,
2013-01-02 03:18:00,-2.3,0.0,29.46,NW,315,0.0,0.0,89,0.00,,,0.00,Rainwise IP-100,2013-01-02 08:18:00,
2013-01-02 03:23:00,-2.4,0.0,29.46,NW,315,0.0,1.4,89,0.00,,,0.00,Rainwise IP-100,2013-01-02 08:23:00,
2013-01-02 03:28:00,-2.4,0.0,29.47,NW,315,0.0,0.0,89,0.00,,,0.00,Rainwise IP-100,2013-01-02 08:28:00,
2013-01-02 03:33:00,-2.5,0.0,29.46,NW,315,0.0,0.0,89,0.00,,,0.00,Rainwise IP-100,2013-01-02 08:33:00,
2013-01-02 03:38:00,-2.6,0.0,29.46,NW,315,0.0,0.0,89,0.00,,,0.00,Rainwise IP-100,2013-01-02 08:38:00,
2013-01-02 03:43:00,-2.5,0.0,29.46,NW,315,0.0,0.0,89,0.00,,,0.00,Rainwise IP-100,2013-01-02 08:43:00,
2013-01-02 03:48:00,-2.5,0.0,29.45,NW,315,0.0,1.2,88,0.00,,,0.00,Rainwise IP-100,2013-01-02 08:48:00,
2013-01-02 03:53:00,-2.5,0.0,29.46,NW,315,0.0,0.0,88,0.00,,,0.00,Rainwise IP-100,2013-01-02 08:53:00,
2013-01-02 03:58:00,-2.6,0.0,29.46,NW,315,0.0,0.0,89,0.00,,,0.00,Rainwise IP-100,2013-01-02 08:58:00,
2013-01-02 04:00:00,-2.6,0.0,29.46,NW,315,0.0,0.0,89,0.00,,,0.00,Rainwise IP-100,2013-01-02 09:00:00,
2013-01-02 04:02:00,-2.6,0.0,29.46,NW,315,0.0,0.0,89,0.00,,,0.00,Rainwise IP-100,2013-01-02 09:02:00,
2013-01-02 04:03:00,-2.6,0.0,29.45,NW,315,0.0,0.0,89,0.00,,,0.00,Rainwise IP-100,2013-01-02 09:03:00,
2013-01-02 04:08:00,-2.6,0.0,29.45,NW,315,0.0,0.0,89,0.00,,,0.00,Rainwise IP-100,2013-01-02 09:08:00,
2013-01-02 04:13:00,-2.4,0.0,29.46,NW,315,0.0,0.0,89,0.00,,,0.00,Rainwise IP-100,2013-01-02 09:13:00,
2013-01-02 04:18:00,-2.3,0.0,29.46,NW,315,0.0,1.6,88,0.00,,,0.00,Rainwise IP-100,2013-01-02 09:18:00,
2013-01-02 04:23:00,-2.3,0.0,29.44,NW,315,0.0,1.6,88,0.00,,,0.00,Rainwise IP-100,2013-01-02 09:23:00,
2013-01-02 04:28:00,-2.2,0.0,29.44,NW,315,0.0,0.0,88,0.00,,,0.00,Rainwise IP-100,2013-01-02 09:28:00,
2013-01-02 04:33:00,-2.0,0.0,29.45,NW,315,0.0,0.0,88,0.00,,,0.00,Rainwise IP-100,2013-01-02 09:33:00,
2013-01-02 04:38:00,-1.8,0.0,29.44,NW,315,0.0,1.2,88,0.00,,,0.00,Rainwise IP-100,2013-01-02 09:38:00,
2013-01-02 04:43:00,-1.8,0.0,29.44,NW,315,0.0,0.0,88,0.00,,,0.00,Rainwise IP-100,2013-01-02 09:43:00,
2013-01-02 04:48:00,-1.8,0.0,29.44,NW,315,2.3,2.3,88,0.00,,,0.00,Rainwise IP-100,2013-01-02 09:48:00,
2013-01-02 04:54:00,-1.6,0.0,29.44,NW,315,1.2,3.3,88,0.00,,,0.00,Rainwise IP-100,2013-01-02 09:54:00,
2013-01-02 04:59:00,-1.3,0.0,29.45,NW,315,0.0,1.4,88,0.00,,,0.00,Rainwise IP-100,2013-01-02 09:59:00,
2013-01-02 05:04:00,-1.2,0.0,29.45,NW,315,0.0,0.0,88,0.00,,,0.00,Rainwise IP-100,2013-01-02 10:04:00,
2013-01-02 05:09:00,0.8,0.0,29.44,NW,315,0.0,0.0,88,0.00,,,0.00,Rainwise IP-100,2013-01-02 10:09:00,
2013-01-02 05:14:00,0.5,0.0,29.44,NW,315,0.0,0.0,88,0.00,,,0.00,Rainwise IP-100,2013-01-02 10:14:00,
2013-01-02 05:19:00,0.2,0.0,29.44,NW,315,0.0,0.0,88,0.00,,,0.00,Rainwise IP-100,2013-01-02 10:19:00,
2013-01-02 05:24:00,0.0,0.0,29.44,NW,315,0.0,1.4,88,0.00,,,0.00,Rainwise IP-100,2013-01-02 10:24:00,
2013-01-02 05:29:00,0.1,0.0,29.44,NW,315,0.0,1.2,88,0.00,,,0.00,Rainwise IP-100,2013-01-02 10:29:00,
2013-01-02 05:34:00,0.1,0.0,29.43,NW,315,0.0,1.2,88,0.00,,,0.00,Rainwise IP-100,2013-01-02 10:34:00,
2013-01-02 05:39:00,0.2,0.0,29.43,NW,315,1.4,2.1,88,0.00,,,0.00,Rainwise IP-100,2013-01-02 10:39:00,
2013-01-02 05:44:00,0.3,0.0,29.43,NW,315,0.0,2.1,88,0.00,,,0.00,Rainwise IP-100,2013-01-02 10:44:00,
2013-01-02 05:49:00,0.4,0.0,29.43,NW,315,0.0,1.9,88,0.00,,,0.00,Rainwise IP-100,2013-01-02 10:49:00,
2013-01-02 05:54:00,0.4,0.0,29.43,NW,315,1.2,1.6,88,0.00,,,0.00,Rainwise IP-100,2013-01-02 10:54:00,
2013-01-02 05:59:00,0.4,0.0,29.42,NW,315,1.2,1.6,88,0.00,,,0.00,Rainwise IP-100,2013-01-02 10:59:00,
2013-01-02 06:04:00,0.4,0.0,29.43,NW,315,1.2,1.9,88,0.00,,,0.00,Rainwise IP-100,2013-01-02 11:04:00,
2013-01-02 06:10:00,0.6,0.0,29.43,NW,315,0.0,1.9,88,0.00,,,0.00,Rainwise IP-100,2013-01-02 11:10:00,
2013-01-02 06:15:00,0.7,0.0,29.42,NW,315,0.0,0.0,88,0.00,,,0.00,Rainwise IP-100,2013-01-02 11:15:00,
2013-01-02 06:20:00,0.9,0.0,29.43,NW,315,0.0,0.0,88,0.00,,,0.00,Rainwise IP-100,2013-01-02 11:20:00,
2013-01-02 06:25:00,1.3,0.0,29.42,NW,315,0.0,0.0,88,0.00,,,0.00,Rainwise IP-100,2013-01-02 11:25:00,
2013-01-02 06:30:00,1.6,0.0,29.43,NW,315,0.0,0.0,88,0.00,,,0.00,Rainwise IP-100,2013-01-02 11:30:00,
2013-01-02 06:35:00,1.7,0.0,29.43,NW,315,0.0,0.0,87,0.00,,,0.00,Rainwise IP-100,2013-01-02 11:35:00,
2013-01-02 06:40:00,1.8,0.0,29.42,NW,315,1.2,1.4,87,0.00,,,0.00,Rainwise IP-100,2013-01-02 11:40:00,
2013-01-02 06:45:00,1.7,0.0,29.42,NW,315,0.0,1.4,88,0.00,,,0.00,Rainwise IP-100,2013-01-02 11:45:00,
2013-01-02 06:50:00,1.7,0.0,29.42,NW,315,0.0,0.0,88,0.00,,,0.00,Rainwise IP-100,2013-01-02 11:50:00,
2013-01-02 06:55:00,1.8,0.0,29.42,NW,315,0.0,1.2,88,0.00,,,0.00,Rainwise IP-100,2013-01-02 11:55:00,
2013-01-02 07:00:00,1.9,0.0,29.42,NW,315,1.2,1.9,88,0.00,,,0.00,Rainwise IP-100,2013-01-02 12:00:00,
2013-01-02 07:05:00,2.0,0.0,29.42,NW,315,1.2,2.1,88,0.00,,,0.00,Rainwise IP-100,2013-01-02 12:05:00,
2013-01-02 07:10:00,2.0,0.0,29.42,NW,315,0.0,2.1,88,0.00,,,0.00,Rainwise IP-100,2013-01-02 12:10:00,
2013-01-02 07:15:00,2.0,0.0,29.42,NW,315,0.0,1.2,88,0.00,,,0.00,Rainwise IP-100,2013-01-02 12:15:00,
2013-01-02 07:20:00,2.2,0.0,29.42,NW,315,1.6,1.6,88,0.00,,,0.00,Rainwise IP-100,2013-01-02 12:20:00,
2013-01-02 07:26:00,2.3,0.0,29.42,NNW,337,1.4,2.8,88,0.00,,,0.00,Rainwise IP-100,2013-01-02 12:26:00,
2013-01-02 07:31:00,2.4,0.0,29.42,NNW,337,1.4,3.5,88,0.00,,,0.00,Rainwise IP-100,2013-01-02 12:31:00,
2013-01-02 07:36:00,2.6,0.0,29.41,NNW,337,2.3,3.0,88,0.00,,,0.00,Rainwise IP-100,2013-01-02 12:36:00,
2013-01-02 07:41:00,2.7,0.0,29.41,NNW,337,0.0,2.8,88,0.00,,,0.00,Rainwise IP-100,2013-01-02 12:41:00,
2013-01-02 07:46:00,2.8,0.0,29.41,NNW,337,1.2,0.0,88,0.00,,,0.00,Rainwise IP-100,2013-01-02 12:46:00,
2013-01-02 07:51:00,2.9,0.0,29.42,NNW,337,2.3,3.0,88,0.00,,,0.00,Rainwise IP-100,2013-01-02 12:51:00,
2013-01-02 07:56:00,3.0,0.0,29.41,NNW,337,1.4,2.6,88,0.00,,,0.00,Rainwise IP-100,2013-01-02 12:56:00,
2013-01-02 08:01:00,3.2,0.0,29.42,NNW,337,1.2,2.6,88,0.00,,,0.00,Rainwise IP-100,2013-01-02 13:01:00,
2013-01-02 08:06:00,3.3,0.0,29.42,NNW,337,1.2,3.0,88,0.00,,,0.00,Rainwise IP-100,2013-01-02 13:06:00,
2013-01-02 08:11:00,3.5,0.0,29.42,NNW,337,2.1,3.0,88,0.00,,,0.00,Rainwise IP-100,2013-01-02 13:11:00,
2013-01-02 08:16:00,3.7,0.0,29.42,NNW,337,2.6,2.6,88,0.00,,,0.00,Rainwise IP-100,2013-01-02 13:16:00,
2013-01-02 08:21:00,3.8,0.0,29.43,North,360,0.0,2.6,87,0.00,,,0.00,Rainwise IP-100,2013-01-02 13:21:00,
2013-01-02 08:26:00,3.9,0.0,29.43,North,360,0.0,2.3,87,0.00,,,0.00,Rainwise IP-100,2013-01-02 13:26:00,
2013-01-02 08:31:00,4.0,0.0,29.43,North,360,0.0,1.2,88,0.00,,,0.00,Rainwise IP-100,2013-01-02 13:31:00,
2013-01-02 08:36:00,4.1,0.0,29.43,North,360,2.1,2.1,88,0.00,,,0.00,Rainwise IP-100,2013-01-02 13:36:00,
2013-01-02 08:42:00,4.5,4.0,29.43,NNW,337,2.3,4.0,88,0.00,,,0.00,Rainwise IP-100,2013-01-02 13:42:00,
2013-01-02 08:47:00,4.7,4.0,29.43,NNE,22,2.8,4.0,88,0.00,,,0.00,Rainwise IP-100,2013-01-02 13:47:00,
2013-01-02 08:52:00,4.8,4.0,29.43,NNE,22,0.0,3.0,88,0.00,,,0.00,Rainwise IP-100,2013-01-02 13:52:00,
2013-01-02 08:57:00,4.9,4.0,29.43,NNE,22,0.0,1.4,88,0.00,,,0.00,Rainwise IP-100,2013-01-02 13:57:00,
2013-01-02 09:02:00,5.1,4.0,29.44,NNE,22,0.0,1.4,88,0.00,,,0.00,Rainwise IP-100,2013-01-02 14:02:00,
2013-01-02 09:07:00,5.4,4.0,29.43,NNE,22,1.2,1.4,88,0.00,,,0.00,Rainwise IP-100,2013-01-02 14:07:00,
2013-01-02 09:12:00,5.7,4.0,29.44,NNE,22,0.0,1.2,88,0.00,,,0.00,Rainwise IP-100,2013-01-02 14:12:00,
2013-01-02 09:17:00,5.9,4.0,29.44,NNE,22,0.0,1.2,87,0.00,,,0.00,Rainwise IP-100,2013-01-02 14:17:00,
2013-01-02 09:22:00,6.1,4.0,29.44,NNE,22,0.0,2.3,87,0.00,,,0.00,Rainwise IP-100,2013-01-02 14:22:00,
2013-01-02 09:27:00,6.2,4.0,29.44,NNE,22,0.0,1.6,87,0.00,,,0.00,Rainwise IP-100,2013-01-02 14:27:00,
2013-01-02 09:32:00,6.5,4.0,29.44,NNE,22,0.0,0.0,87,0.00,,,0.00,Rainwise IP-100,2013-01-02 14:32:00,
2013-01-02 09:37:00,6.9,4.0,29.44,NNE,22,0.0,0.0,88,0.00,,,0.00,Rainwise IP-100,2013-01-02 14:37:00,
2013-01-02 09:42:00,7.2,4.0,29.44,NNE,22,0.0,0.0,89,0.00,,,0.00,Rainwise IP-100,2013-01-02 14:42:00,
2013-01-02 09:47:00,7.6,4.0,29.45,NNE,22,1.2,1.4,89,0.00,,,0.00,Rainwise IP-100,2013-01-02 14:47:00,
2013-01-02 09:52:00,7.8,4.0,29.45,NNE,22,0.0,1.6,89,0.00,,,0.00,Rainwise IP-100,2013-01-02 14:52:00,
2013-01-02 09:58:00,7.9,4.0,29.45,NNE,22,0.0,0.0,88,0.00,,,0.00,Rainwise IP-100,2013-01-02 14:58:00,
2013-01-02 10:03:00,8.1,4.0,29.46,North,360,1.9,3.7,89,0.00,,,0.00,Rainwise IP-100,2013-01-02 15:03:00,
2013-01-02 10:08:00,8.8,8.0,29.46,NNE,22,1.4,1.9,89,0.00,,,0.00,Rainwise IP-100,2013-01-02 15:08:00,
2013-01-02 10:13:00,9.3,8.0,29.46,ENE,67,2.6,4.4,90,0.00,,,0.00,Rainwise IP-100,2013-01-02 15:13:00,
2013-01-02 10:18:00,9.2,8.0,29.46,East,90,2.3,5.6,90,0.00,,,0.00,Rainwise IP-100,2013-01-02 15:18:00,
2013-01-02 10:23:00,9.2,8.0,29.46,ENE,67,2.6,3.5,89,0.00,,,0.00,Rainwise IP-100,2013-01-02 15:23:00,
2013-01-02 10:28:00,9.7,8.0,29.46,NE,45,2.8,4.7,89,0.00,,,0.00,Rainwise IP-100,2013-01-02 15:28:00,
2013-01-02 10:33:00,10.3,8.0,29.46,North,360,2.1,4.7,88,0.00,,,0.00,Rainwise IP-100,2013-01-02 15:33:00,
2013-01-02 10:38:00,10.8,8.0,29.46,NE,45,2.3,4.0,89,0.00,,,0.00,Rainwise IP-100,2013-01-02 15:38:00,
2013-01-02 10:43:00,11.7,11.0,29.46,NNE,22,0.0,3.0,91,0.00,,,0.00,Rainwise IP-100,2013-01-02 15:43:00,
2013-01-02 10:48:00,12.7,11.0,29.46,NNE,22,0.0,1.2,93,0.00,,,0.00,Rainwise IP-100,2013-01-02 15:48:00,
2013-01-02 10:53:00,13.8,14.0,29.45,NNE,22,1.6,1.6,94,0.00,,,0.00,Rainwise IP-100,2013-01-02 15:53:00,
2013-01-02 10:58:00,14.3,14.0,29.45,ENE,67,2.8,3.7,94,0.00,,,0.00,Rainwise IP-100,2013-01-02 15:58:00,
2013-01-02 11:03:00,14.5,14.0,29.45,ENE,67,0.0,3.5,93,0.00,,,0.00,Rainwise IP-100,2013-01-02 16:03:00,
2013-01-02 11:08:00,15.8,14.0,29.45,ENE,67,0.0,1.2,93,0.00,,,0.00,Rainwise IP-100,2013-01-02 16:08:00,
2013-01-02 11:14:00,16.3,14.0,29.45,NE,45,1.9,3.7,94,0.00,,,0.00,Rainwise IP-100,2013-01-02 16:14:00,
2013-01-02 11:19:00,15.3,14.0,29.45,NE,45,0.0,3.5,92,0.00,,,0.00,Rainwise IP-100,2013-01-02 16:19:00,
2013-01-02 11:24:00,14.9,14.0,29.45,ENE,67,3.3,4.4,92,0.00,,,0.00,Rainwise IP-100,2013-01-02 16:24:00,
2013-01-02 11:29:00,14.8,14.0,29.44,NE,45,4.9,7.2,90,0.00,,,0.00,Rainwise IP-100,2013-01-02 16:29:00,
2013-01-02 11:34:00,14.2,11.0,29.45,ENE,67,7.9,9.1,88,0.00,,,0.00,Rainwise IP-100,2013-01-02 16:34:00,
2013-01-02 11:39:00,13.6,11.0,29.45,NE,45,3.7,10.3,88,0.00,,,0.00,Rainwise IP-100,2013-01-02 16:39:00,
2013-01-02 11:44:00,13.5,11.0,29.45,ENE,67,2.1,6.3,89,0.00,,,0.00,Rainwise IP-100,2013-01-02 16:44:00,
2013-01-02 11:49:00,13.6,11.0,29.45,ENE,67,1.4,6.3,89,0.00,,,0.00,Rainwise IP-100,2013-01-02 16:49:00,
2013-01-02 11:54:00,13.6,11.0,29.45,NNW,337,3.3,5.6,89,0.00,,,0.00,Rainwise IP-100,2013-01-02 16:54:00,
2013-01-02 11:59:00,13.8,11.0,29.46,NNE,22,0.0,4.4,89,0.00,,,0.00,Rainwise IP-100,2013-01-02 16:59:00,
2013-01-02 12:04:00,14.0,11.0,29.45,NNE,22,1.4,3.7,89,0.00,,,0.00,Rainwise IP-100,2013-01-02 17:04:00,
2013-01-02 12:09:00,14.2,11.0,29.45,NE,45,2.6,2.8,89,0.00,,,0.00,Rainwise IP-100,2013-01-02 17:09:00,
2013-01-02 12:14:00,14.4,11.0,29.45,NE,45,0.0,2.8,88,0.00,,,0.00,Rainwise IP-100,2013-01-02 17:14:00,
2013-01-02 12:19:00,14.7,14.0,29.45,NE,45,1.9,2.1,87,0.00,,,0.00,Rainwise IP-100,2013-01-02 17:19:00,
2013-01-02 12:24:00,15.4,14.0,29.45,NE,45,0.0,2.1,87,0.00,,,0.00,Rainwise IP-100,2013-01-02 17:24:00,
2013-01-02 12:30:00,16.7,16.0,29.46,NE,45,0.0,1.2,90,0.00,,,0.00,Rainwise IP-100,2013-01-02 17:30:00,
2013-01-02 12:35:00,17.8,16.0,29.45,NNE,22,2.3,4.0,91,0.00,,,0.00,Rainwise IP-100,2013-01-02 17:35:00,
2013-01-02 12:40:00,18.6,18.0,29.45,ENE,67,1.9,15.4,87,0.00,,,0.00,Rainwise IP-100,2013-01-02 17:40:00,
2013-01-02 12:45:00,19.2,16.0,29.46,WNW,292,2.6,15.4,81,0.00,,,0.00,Rainwise IP-100,2013-01-02 17:45:00,
2013-01-02 12:50:00,19.3,14.0,29.46,NNW,337,10.5,14.9,77,0.00,,,0.00,Rainwise IP-100,2013-01-02 17:50:00,
2013-01-02 12:55:00,19.3,14.0,29.46,NNW,337,4.9,14.7,75,0.00,,,0.00,Rainwise IP-100,2013-01-02 17:55:00,
2013-01-02 13:00:00,19.4,14.0,29.46,North,360,9.8,10.7,73,0.00,,,0.00,Rainwise IP-100,2013-01-02 18:00:00,
2013-01-02 13:05:00,19.7,14.0,29.46,NNE,22,10.0,11.2,71,0.00,,,0.00,Rainwise IP-100,2013-01-02 18:05:00,
2013-01-02 13:10:00,20.1,14.0,29.46,North,360,1.6,14.2,69,0.00,,,0.00,Rainwise IP-100,2013-01-02 18:10:00,
2013-01-02 13:15:00,20.3,11.0,29.46,NNW,337,6.8,12.1,67,0.00,,,0.00,Rainwise IP-100,2013-01-02 18:15:00,
2013-01-02 13:20:00,20.3,11.0,29.46,NNW,337,10.0,16.6,66,0.00,,,0.00,Rainwise IP-100,2013-01-02 18:20:00,
2013-01-02 13:25:00,20.5,11.0,29.46,NNW,337,6.8,15.9,65,0.00,,,0.00,Rainwise IP-100,2013-01-02 18:25:00,
2013-01-02 13:30:00,20.8,11.0,29.46,North,360,9.1,14.5,64,0.00,,,0.00,Rainwise IP-100,2013-01-02 18:30:00,
2013-01-02 13:35:00,20.7,11.0,29.47,NNW,337,7.9,13.5,63,0.00,,,0.00,Rainwise IP-100,2013-01-02 18:35:00,
2013-01-02 13:40:00,20.6,11.0,29.47,NNE,22,5.8,19.4,63,0.00,,,0.00,Rainwise IP-100,2013-01-02 18:40:00,
2013-01-02 13:45:00,20.4,11.0,29.47,North,360,4.7,14.9,62,0.00,,,0.00,Rainwise IP-100,2013-01-02 18:45:00,
2013-01-02 13:51:00,20.4,11.0,29.47,NNE,22,8.6,11.4,61,0.00,,,0.00,Rainwise IP-100,2013-01-02 18:51:00,
2013-01-02 13:56:00,20.6,11.0,29.47,North,360,6.3,16.1,61,0.00,,,0.00,Rainwise IP-100,2013-01-02 18:56:00,
2013-01-02 14:01:00,20.2,11.0,29.48,North,360,5.8,16.1,60,0.00,,,0.00,Rainwise IP-100,2013-01-02 19:01:00,
2013-01-02 14:06:00,20.0,11.0,29.48,WNW,292,7.2,12.6,60,0.00,,,0.00,Rainwise IP-100,2013-01-02 19:06:00,
2013-01-02 14:11:00,20.0,11.0,29.49,ENE,67,5.4,16.1,60,0.00,,,0.00,Rainwise IP-100,2013-01-02 19:11:00,
2013-01-02 14:16:00,19.8,8.0,29.49,NNW,337,5.1,18.7,59,0.00,,,0.00,Rainwise IP-100,2013-01-02 19:16:00,
2013-01-02 14:21:00,19.8,8.0,29.50,NNE,22,7.5,12.1,59,0.00,,,0.00,Rainwise IP-100,2013-01-02 19:21:00,
2013-01-02 14:26:00,19.8,8.0,29.50,ENE,67,4.7,15.9,58,0.00,,,0.00,Rainwise IP-100,2013-01-02 19:26:00,
2013-01-02 14:31:00,19.6,8.0,29.50,NNW,337,4.2,19.4,58,0.00,,,0.00,Rainwise IP-100,2013-01-02 19:31:00,
2013-01-02 14:36:00,19.5,8.0,29.51,NNE,22,5.4,11.4,58,0.00,,,0.00,Rainwise IP-100,2013-01-02 19:36:00,
2013-01-02 14:41:00,19.5,8.0,29.51,NNW,337,6.8,13.1,57,0.00,,,0.00,Rainwise IP-100,2013-01-02 19:41:00,
2013-01-02 14:46:00,19.7,8.0,29.51,NNW,337,0.0,7.9,57,0.00,,,0.00,Rainwise IP-100,2013-01-02 19:46:00,
2013-01-02 14:51:00,20.0,8.0,29.51,NNE,22,8.6,8.6,58,0.00,,,0.00,Rainwise IP-100,2013-01-02 19:51:00,
2013-01-02 14:56:00,19.9,8.0,29.51,NNW,337,7.0,15.9,57,0.00,,,0.00,Rainwise IP-100,2013-01-02 19:56:00,
2013-01-02 15:01:00,19.7,8.0,29.52,NNE,22,5.4,15.2,56,0.00,,,0.00,Rainwise IP-100,2013-01-02 20:01:00,
2013-01-02 15:07:00,19.5,8.0,29.52,NNW,337,7.7,12.1,56,0.00,,,0.00,Rainwise IP-100,2013-01-02 20:07:00,
2013-01-02 15:12:00,19.5,8.0,29.52,NNW,337,8.9,13.1,55,0.00,,,0.00,Rainwise IP-100,2013-01-02 20:12:00,
2013-01-02 15:17:00,19.3,8.0,29.52,NNW,337,5.8,14.0,55,0.00,,,0.00,Rainwise IP-100,2013-01-02 20:17:00,
2013-01-02 15:22:00,19.0,8.0,29.52,North,360,9.1,18.7,55,0.00,,,0.00,Rainwise IP-100,2013-01-02 20:22:00,
2013-01-02 15:27:00,18.8,8.0,29.53,North,360,9.8,11.9,55,0.00,,,0.00,Rainwise IP-100,2013-01-02 20:27:00,
2013-01-02 15:32:00,18.3,8.0,29.53,North,360,8.4,14.5,55,0.00,,,0.00,Rainwise IP-100,2013-01-02 20:32:00,
2013-01-02 15:37:00,17.8,8.0,29.52,NNW,337,10.5,17.3,55,0.00,,,0.00,Rainwise IP-100,2013-01-02 20:37:00,
2013-01-02 15:42:00,17.4,8.0,29.53,NNE,22,9.1,16.6,56,0.00,,,0.00,Rainwise IP-100,2013-01-02 20:42:00,
2013-01-02 15:47:00,16.9,8.0,29.54,NE,45,4.2,18.0,57,0.00,,,0.00,Rainwise IP-100,2013-01-02 20:47:00,
2013-01-02 15:52:00,16.5,8.0,29.54,NNE,22,9.1,17.5,57,0.00,,,0.00,Rainwise IP-100,2013-01-02 20:52:00,
2013-01-02 15:57:00,16.1,4.0,29.54,North,360,9.8,15.4,57,0.00,,,0.00,Rainwise IP-100,2013-01-02 20:57:00,
2013-01-02 16:02:00,15.8,4.0,29.55,NNW,337,5.6,17.3,57,0.00,,,0.00,Rainwise IP-100,2013-01-02 21:02:00,
2013-01-02 16:07:00,15.6,4.0,29.55,NNE,22,11.9,12.1,58,0.00,,,0.00,Rainwise IP-100,2013-01-02 21:07:00,
2013-01-02 16:12:00,15.4,4.0,29.56,NNE,22,11.2,13.5,59,0.00,,,0.00,Rainwise IP-100,2013-01-02 21:12:00,
2013-01-02 16:17:00,15.3,4.0,29.57,North,360,9.6,14.5,59,0.00,,,0.00,Rainwise IP-100,2013-01-02 21:17:00,
2013-01-02 16:23:00,15.1,4.0,29.57,NNW,337,6.1,11.2,59,0.00,,,0.00,Rainwise IP-100,2013-01-02 21:23:00,
2013-01-02 16:28:00,14.7,4.0,29.57,NNW,337,6.5,9.1,59,0.00,,,0.00,Rainwise IP-100,2013-01-02 21:28:00,
2013-01-02 16:33:00,14.4,4.0,29.58,NNW,337,5.6,8.6,60,0.00,,,0.00,Rainwise IP-100,2013-01-02 21:33:00,
2013-01-02 16:38:00,14.2,4.0,29.58,North,360,7.9,7.9,60,0.00,,,0.00,Rainwise IP-100,2013-01-02 21:38:00,
2013-01-02 16:43:00,13.9,4.0,29.58,North,360,7.5,11.2,61,0.00,,,0.00,Rainwise IP-100,2013-01-02 21:43:00,
2013-01-02 16:48:00,13.5,4.0,29.58,NNE,22,12.6,12.6,62,0.00,,,0.00,Rainwise IP-100,2013-01-02 21:48:00,
2013-01-02 16:53:00,13.0,4.0,29.58,NNW,337,9.1,16.1,62,0.00,,,0.00,Rainwise IP-100,2013-01-02 21:53:00,
2013-01-02 16:58:00,12.6,4.0,29.58,NNW,337,11.2,15.9,62,0.00,,,0.00,Rainwise IP-100,2013-01-02 21:58:00,
2013-01-02 17:03:00,12.2,4.0,29.59,North,360,6.5,11.4,63,0.00,,,0.00,Rainwise IP-100,2013-01-02 22:03:00,
2013-01-02 17:08:00,12.0,4.0,29.59,NNE,22,6.1,12.1,63,0.00,,,0.00,Rainwise IP-100,2013-01-02 22:08:00,
2013-01-02 17:13:00,11.8,4.0,29.59,North,360,7.2,13.3,63,0.00,,,0.00,Rainwise IP-100,2013-01-02 22:13:00,
2013-01-02 17:18:00,11.6,4.0,29.60,NNE,22,7.0,8.9,63,0.00,,,0.00,Rainwise IP-100,2013-01-02 22:18:00,
2013-01-02 17:23:00,11.4,0.0,29.60,NNW,337,7.0,10.5,63,0.00,,,0.00,Rainwise IP-100,2013-01-02 22:23:00,
2013-01-02 17:28:00,11.1,0.0,29.60,North,360,0.0,8.6,63,0.00,,,0.00,Rainwise IP-100,2013-01-02 22:28:00,
2013-01-02 17:33:00,10.9,0.0,29.60,NE,45,3.5,5.1,64,0.00,,,0.00,Rainwise IP-100,2013-01-02 22:33:00,
2013-01-02 17:39:00,10.6,0.0,29.61,NW,315,4.9,6.1,64,0.00,,,0.00,Rainwise IP-100,2013-01-02 22:39:00,
2013-01-02 17:44:00,10.4,0.0,29.61,NNW,337,7.0,9.3,64,0.00,,,0.00,Rainwise IP-100,2013-01-02 22:44:00,
2013-01-02 17:49:00,10.1,0.0,29.61,North,360,11.7,11.7,63,0.00,,,0.00,Rainwise IP-100,2013-01-02 22:49:00,
2013-01-02 17:54:00,9.8,0.0,29.62,NNE,22,3.0,13.8,62,0.00,,,0.00,Rainwise IP-100,2013-01-02 22:54:00,
2013-01-02 17:59:00,9.5,0.0,29.63,NNE,22,1.6,11.0,62,0.00,,,0.00,Rainwise IP-100,2013-01-02 22:59:00,
2013-01-02 18:04:00,9.2,0.0,29.63,NNE,22,0.0,4.7,62,0.00,,,0.00,Rainwise IP-100,2013-01-02 23:04:00,
2013-01-02 18:09:00,8.9,0.0,29.64,North,360,3.0,7.2,62,0.00,,,0.00,Rainwise IP-100,2013-01-02 23:09:00,
2013-01-02 18:14:00,8.4,0.0,29.64,NNE,22,5.6,9.6,63,0.00,,,0.00,Rainwise IP-100,2013-01-02 23:14:00,
2013-01-02 18:19:00,8.1,0.0,29.64,NNE,22,6.3,11.4,63,0.00,,,0.00,Rainwise IP-100,2013-01-02 23:19:00,
2013-01-02 18:24:00,7.7,0.0,29.65,NNE,22,2.6,11.9,63,0.00,,,0.00,Rainwise IP-100,2013-01-02 23:24:00,
2013-01-02 18:29:00,7.3,0.0,29.65,NNW,337,4.7,10.3,63,0.00,,,0.00,Rainwise IP-100,2013-01-02 23:29:00,
2013-01-02 18:34:00,7.1,0.0,29.65,NNE,22,9.1,18.0,63,0.00,,,0.00,Rainwise IP-100,2013-01-02 23:34:00,
2013-01-02 18:39:00,6.9,0.0,29.65,ENE,67,4.9,10.3,63,0.00,,,0.00,Rainwise IP-100,2013-01-02 23:39:00,
2013-01-02 18:44:00,6.6,0.0,29.65,NNE,22,9.3,10.0,63,0.00,,,0.00,Rainwise IP-100,2013-01-02 23:44:00,
2013-01-02 18:49:00,6.2,0.0,29.65,NNE,22,7.9,15.2,64,0.00,,,0.00,Rainwise IP-100,2013-01-02 23:49:00,
2013-01-02 18:55:00,5.9,0.0,29.65,NNE,22,11.7,13.5,63,0.00,,,0.00,Rainwise IP-100,2013-01-02 23:55:00,
2013-01-02 19:00:00,5.7,0.0,29.66,NNW,337,12.6,19.6,63,0.00,,,0.00,Rainwise IP-100,2013-01-03 00:00:00,
2013-01-02 19:05:00,5.4,0.0,29.66,North,360,5.4,12.6,63,0.00,,,0.00,Rainwise IP-100,2013-01-03 00:05:00,
2013-01-02 19:10:00,5.1,0.0,29.67,NW,315,4.0,19.8,63,0.00,,,0.00,Rainwise IP-100,2013-01-03 00:10:00,
2013-01-02 19:15:00,4.9,0.0,29.66,NNE,22,8.9,15.2,63,0.00,,,0.00,Rainwise IP-100,2013-01-03 00:15:00,
2013-01-02 19:20:00,4.8,0.0,29.66,North,360,4.7,11.7,63,0.00,,,0.00,Rainwise IP-100,2013-01-03 00:20:00,
2013-01-02 19:25:00,4.5,0.0,29.67,NNE,22,2.8,14.0,63,0.00,,,0.00,Rainwise IP-100,2013-01-03 00:25:00,
2013-01-02 19:30:00,4.2,-6.0,29.67,NNE,22,5.4,8.9,63,0.00,,,0.00,Rainwise IP-100,2013-01-03 00:30:00,
2013-01-02 19:35:00,4.2,-6.0,29.66,NNE,22,12.1,12.4,63,0.00,,,0.00,Rainwise IP-100,2013-01-03 00:35:00,
2013-01-02 19:40:00,4.1,-6.0,29.67,NNE,22,4.0,12.1,63,0.00,,,0.00,Rainwise IP-100,2013-01-03 00:40:00,
2013-01-02 19:45:00,4.0,-6.0,29.67,North,360,9.1,10.7,63,0.00,,,0.00,Rainwise IP-100,2013-01-03 00:45:00,
2013-01-02 19:51:00,3.9,-6.0,29.67,NW,315,8.6,9.1,63,0.00,,,0.00,Rainwise IP-100,2013-01-03 00:51:00,
2013-01-02 19:56:00,3.8,-6.0,29.68,NNW,337,4.4,13.8,63,0.00,,,0.00,Rainwise IP-100,2013-01-03 00:56:00,
2013-01-02 20:01:00,3.6,-6.0,29.67,NNW,337,9.8,14.0,63,0.00,,,0.00,Rainwise IP-100,2013-01-03 01:01:00,
2013-01-02 20:06:00,3.4,-6.0,29.67,NNW,337,6.5,10.5,63,0.00,,,0.00,Rainwise IP-100,2013-01-03 01:06:00,
2013-01-02 20:11:00,3.3,-6.0,29.68,North,360,5.6,8.6,63,0.00,,,0.00,Rainwise IP-100,2013-01-03 01:11:00,
2013-01-02 20:16:00,3.2,-6.0,29.68,NNW,337,5.4,10.7,63,0.00,,,0.00,Rainwise IP-100,2013-01-03 01:16:00,
2013-01-02 20:21:00,3.0,-6.0,29.69,NNW,337,3.0,9.3,63,0.00,,,0.00,Rainwise IP-100,2013-01-03 01:21:00,
2013-01-02 20:26:00,2.9,-6.0,29.69,NNW,337,5.8,7.9,64,0.00,,,0.00,Rainwise IP-100,2013-01-03 01:26:00,
2013-01-02 20:31:00,2.7,-6.0,29.69,NNE,22,5.1,6.8,64,0.00,,,0.00,Rainwise IP-100,2013-01-03 01:31:00,
2013-01-02 20:36:00,2.4,-6.0,29.69,NNW,337,4.0,8.9,64,0.00,,,0.00,Rainwise IP-100,2013-01-03 01:36:00,
2013-01-02 20:41:00,2.2,-6.0,29.69,NNE,22,4.9,9.1,65,0.00,,,0.00,Rainwise IP-100,2013-01-03 01:41:00,
2013-01-02 20:46:00,2.1,-6.0,29.69,North,360,4.0,5.8,65,0.00,,,0.00,Rainwise IP-100,2013-01-03 01:46:00,
2013-01-02 20:51:00,1.8,-6.0,29.69,NNW,337,3.5,6.3,65,0.00,,,0.00,Rainwise IP-100,2013-01-03 01:51:00,
2013-01-02 20:56:00,1.5,-6.0,29.70,NNE,22,3.3,5.8,66,0.00,,,0.00,Rainwise IP-100,2013-01-03 01:56:00,
2013-01-02 21:01:00,1.4,-6.0,29.70,North,360,3.0,4.2,66,0.00,,,0.00,Rainwise IP-100,2013-01-03 02:01:00,
2013-01-02 21:07:00,1.2,-6.0,29.70,North,360,5.4,6.3,66,0.00,,,0.00,Rainwise IP-100,2013-01-03 02:07:00,
2013-01-02 21:12:00,1.1,-6.0,29.71,North,360,5.4,6.1,67,0.00,,,0.00,Rainwise IP-100,2013-01-03 02:12:00,
2013-01-02 21:17:00,1.1,-6.0,29.71,NNE,22,4.0,6.8,67,0.00,,,0.00,Rainwise IP-100,2013-01-03 02:17:00,
2013-01-02 21:22:00,1.0,-6.0,29.72,NNE,22,4.4,6.1,68,0.00,,,0.00,Rainwise IP-100,2013-01-03 02:22:00,
2013-01-02 21:27:00,0.8,-6.0,29.71,NNE,22,1.2,7.5,68,0.00,,,0.00,Rainwise IP-100,2013-01-03 02:27:00,
2013-01-02 21:32:00,0.6,-6.0,29.71,NNW,337,2.6,4.4,69,0.00,,,0.00,Rainwise IP-100,2013-01-03 02:32:00,
2013-01-02 21:37:00,0.1,-6.0,29.71,North,360,1.9,3.3,69,0.00,,,0.00,Rainwise IP-100,2013-01-03 02:37:00,
2013-01-02 21:42:00,0.1,-6.0,29.72,North,360,0.0,2.8,70,0.00,,,0.00,Rainwise IP-100,2013-01-03 02:42:00,
2013-01-02 21:47:00,0.2,-6.0,29.72,NNE,22,3.3,3.3,71,0.00,,,0.00,Rainwise IP-100,2013-01-03 02:47:00,
2013-01-02 21:52:00,0.3,-6.0,29.72,NNE,22,0.0,3.5,71,0.00,,,0.00,Rainwise IP-100,2013-01-03 02:52:00,
2013-01-02 21:57:00,0.5,-6.0,29.73,NNE,22,0.0,3.7,71,0.00,,,0.00,Rainwise IP-100,2013-01-03 02:57:00,
2013-01-02 22:02:00,0.6,-6.0,29.73,ENE,67,0.0,2.3,72,0.00,,,0.00,Rainwise IP-100,2013-01-03 03:02:00,
2013-01-02 22:07:00,0.8,-6.0,29.73,NNW,337,3.0,3.7,73,0.00,,,0.00,Rainwise IP-100,2013-01-03 03:07:00,
2013-01-02 22:12:00,-1.1,-6.0,29.73,NNW,337,2.1,3.3,73,0.00,,,0.00,Rainwise IP-100,2013-01-03 03:12:00,
2013-01-02 22:17:00,-1.2,-6.0,29.73,NNW,337,3.7,4.2,73,0.00,,,0.00,Rainwise IP-100,2013-01-03 03:17:00,
2013-01-02 22:23:00,-1.1,-6.0,29.72,NNW,337,3.0,4.9,73,0.00,,,0.00,Rainwise IP-100,2013-01-03 03:23:00,
2013-01-02 22:28:00,-1.5,-6.0,29.73,NNW,337,0.0,3.7,73,0.00,,,0.00,Rainwise IP-100,2013-01-03 03:28:00,
2013-01-02 22:33:00,-1.8,-6.0,29.73,NW,315,0.0,3.0,73,0.00,,,0.00,Rainwise IP-100,2013-01-03 03:33:00,
2013-01-02 22:38:00,-1.9,-6.0,29.73,North,360,2.1,3.3,74,0.00,,,0.00,Rainwise IP-100,2013-01-03 03:38:00,
2013-01-02 22:43:00,-2.2,-6.0,29.74,NNW,337,2.1,4.7,74,0.00,,,0.00,Rainwise IP-100,2013-01-03 03:43:00,
2013-01-02 22:48:00,-2.4,-6.0,29.74,NNW,337,3.5,4.7,74,0.00,,,0.00,Rainwise IP-100,2013-01-03 03:48:00,
2013-01-02 22:53:00,-2.4,-6.0,29.73,North,360,6.1,6.1,75,0.00,,,0.00,Rainwise IP-100,2013-01-03 03:53:00,
2013-01-02 22:58:00,-2.4,-6.0,29.73,NNW,337,4.4,6.8,75,0.00,,,0.00,Rainwise IP-100,2013-01-03 03:58:00,
2013-01-02 23:03:00,-2.5,-6.0,29.73,NNW,337,4.7,6.1,75,0.00,,,0.00,Rainwise IP-100,2013-01-03 04:03:00,
2013-01-02 23:08:00,-2.6,-6.0,29.73,NNW,337,2.6,5.6,75,0.00,,,0.00,Rainwise IP-100,2013-01-03 04:08:00,
2013-01-02 23:13:00,-2.5,-6.0,29.74,NW,315,3.5,6.1,75,0.00,,,0.00,Rainwise IP-100,2013-01-03 04:13:00,
2013-01-02 23:18:00,-2.3,-6.0,29.73,NNW,337,6.8,7.2,75,0.00,,,0.00,Rainwise IP-100,2013-01-03 04:18:00,
2013-01-02 23:23:00,-2.2,-6.0,29.73,NNW,337,4.2,6.8,74,0.00,,,0.00,Rainwise IP-100,2013-01-03 04:23:00,
2013-01-02 23:28:00,-2.2,-6.0,29.73,NNW,337,1.4,5.6,74,0.00,,,0.00,Rainwise IP-100,2013-01-03 04:28:00,
2013-01-02 23:33:00,-2.4,-6.0,29.74,North,360,3.3,4.9,74,0.00,,,0.00,Rainwise IP-100,2013-01-03 04:33:00,
2013-01-02 23:39:00,-2.7,-6.0,29.73,North,360,3.3,6.1,74,0.00,,,0.00,Rainwise IP-100,2013-01-03 04:39:00,
2013-01-02 23:44:00,-3.0,-6.0,29.73,NNW,337,0.0,4.9,75,0.00,,,0.00,Rainwise IP-100,2013-01-03 04:44:00,
2013-01-02 23:49:00,-2.9,-6.0,29.74,NNW,337,1.4,2.6,75,0.00,,,0.00,Rainwise IP-100,2013-01-03 04:49:00,
2013-01-02 23:54:00,-2.7,-6.0,29.73,NNW,337,1.2,3.5,75,0.00,,,0.00,Rainwise IP-100,2013-01-03 04:54:00,
2013-01-02 23:59:00,-2.7,-6.0,29.74,NNW,337,0.0,2.3,75,0.00,,,0.00,Rainwise IP-100,2013-01-03 04:59:00,